When you browse on this site, cookies collect data to enhance your experience and personalize the content and advertising you see.
Visit our Privacy Policy to learn more. By continuing to use the site, you agree to this use of cookies and data.
  • In Deutschland
  • Länderverzeichnis
  • Für 7 Tage
  • Wassertemperatur
  • Satellitenkarten
  • Wetterkarte
  • Widgets
  • user-avatar
    Anmelden

    Stündliche Wetter Haradok

    Heute, 23 März, Samstag

    Zeit Temperatur Niederschläge Wind Luftdruck Luftfeuchtigkeit
    00:00 -2°C° 0 mm 5 m/S 754 mmHg 69%
    01:00 -2°C° 0 mm 4 m/S 755 mmHg 71%
    02:00 -1°C° 0 mm 3 m/S 755 mmHg 77%
    03:00 -1°C° 0 mm 3 m/S 755 mmHg 78%
    04:00 -2°C° 0 mm 4 m/S 755 mmHg 78%
    05:00 -2°C° 0 mm 4 m/S 755 mmHg 79%
    06:00 -2°C° 0 mm 4 m/S 755 mmHg 77%
    07:00 -2°C° 0 mm 4 m/S 756 mmHg 76%
    08:00 0°C° 0 mm 3 m/S 756 mmHg 74%
    09:00 +1°C° 0 mm 3 m/S 756 mmHg 69%
    10:00 +3°C° 0 mm 2 m/S 756 mmHg 64%
    11:00 +5°C° 0 mm 2 m/S 756 mmHg 59%
    12:00 +5°C° 0 mm 2 m/S 755 mmHg 56%
    13:00 +7°C° 0 mm 1 m/S 755 mmHg 52%
    14:00 +8°C° 0 mm 1 m/S 754 mmHg 49%
    15:00 +8°C° 0 mm 1 m/S 754 mmHg 50%
    16:00 +7°C° 0 mm 2 m/S 754 mmHg 50%
    17:00 +7°C° 0 mm 2 m/S 753 mmHg 51%
    18:00 +6°C° 0 mm 2 m/S 753 mmHg 55%
    19:00 +5°C° 0 mm 2 m/S 752 mmHg 58%
    20:00 +2°C° 0 mm 3 m/S 752 mmHg 62%
    21:00 +3°C° 0 mm 3 m/S 751 mmHg 59%
    22:00 +3°C° 0 mm 3 m/S 750 mmHg 57%
    23:00 +3°C° 0 mm 4 m/S 750 mmHg 54%

    Morgen, 24 März, Sonntag

    Zeit Temperatur Niederschläge Wind Luftdruck Luftfeuchtigkeit
    00:00 +3°C° 0.5 mm 4 m/S 749 mmHg 61%
    01:00 +3°C° 0.5 mm 4 m/S 749 mmHg 68%
    02:00 +3°C° 0.5 mm 4 m/S 748 mmHg 74%
    03:00 +3°C° 0.1 mm 4 m/S 748 mmHg 80%
    04:00 +3°C° 0.1 mm 3 m/S 748 mmHg 85%
    05:00 +3°C° 0.1 mm 3 m/S 747 mmHg 90%
    06:00 +3°C° 0 mm 4 m/S 748 mmHg 85%
    07:00 +2°C° 0 mm 5 m/S 748 mmHg 81%
    08:00 +2°C° 0 mm 5 m/S 748 mmHg 76%
    09:00 +3°C° 0 mm 5 m/S 748 mmHg 67%
    10:00 +4°C° 0 mm 6 m/S 748 mmHg 59%
    11:00 +5°C° 0 mm 6 m/S 748 mmHg 50%
    12:00 +5°C° 0 mm 6 m/S 748 mmHg 47%
    13:00 +5°C° 0 mm 6 m/S 748 mmHg 44%
    14:00 +5°C° 0 mm 6 m/S 748 mmHg 40%
    15:00 +5°C° 0 mm 6 m/S 748 mmHg 42%
    16:00 +6°C° 0 mm 5 m/S 748 mmHg 44%
    17:00 +5°C° 0 mm 5 m/S 747 mmHg 45%
    18:00 +4°C° 0 mm 4 m/S 747 mmHg 50%
    19:00 +3°C° 0 mm 4 m/S 748 mmHg 54%
    20:00 +2°C° 0 mm 3 m/S 748 mmHg 58%
    21:00 +1°C° 0 mm 3 m/S 748 mmHg 61%
    22:00 +1°C° 0 mm 2 m/S 747 mmHg 64%
    23:00 +1°C° 0 mm 2 m/S 747 mmHg 67%

    übermorgen, 25 März, Montag

    Zeit Temperatur Niederschläge Wind Luftdruck Luftfeuchtigkeit
    00:00 -1°C° 0 mm 2 m/S 747 mmHg 67%
    01:00 -1°C° 0 mm 2 m/S 747 mmHg 68%
    02:00 -1°C° 0 mm 2 m/S 747 mmHg 69%
    03:00 -1°C° 0 mm 2 m/S 746 mmHg 69%
    04:00 -1°C° 0 mm 2 m/S 746 mmHg 69%
    05:00 -1°C° 0 mm 2 m/S 746 mmHg 69%
    06:00 +1°C° 0 mm 2 m/S 746 mmHg 66%
    07:00 +1°C° 0 mm 2 m/S 745 mmHg 64%
    08:00 +2°C° 0 mm 2 m/S 745 mmHg 61%
    09:00 +3°C° 0 mm 2 m/S 745 mmHg 56%
    10:00 +4°C° 0 mm 3 m/S 745 mmHg 51%
    11:00 +5°C° 0 mm 3 m/S 744 mmHg 45%
    12:00 +5°C° 0 mm 3 m/S 744 mmHg 43%
    13:00 +7°C° 0 mm 3 m/S 744 mmHg 41%
    14:00 +7°C° 0 mm 3 m/S 744 mmHg 39%
    15:00 +7°C° 0 mm 2 m/S 743 mmHg 40%
    16:00 +6°C° 0 mm 2 m/S 743 mmHg 42%
    17:00 +6°C° 0 mm 2 m/S 743 mmHg 43%
    18:00 +5°C° 0 mm 2 m/S 743 mmHg 50%
    19:00 +4°C° 0 mm 2 m/S 743 mmHg 56%
    20:00 +2°C° 0 mm 2 m/S 743 mmHg 62%
    21:00 +2°C° 0 mm 2 m/S 743 mmHg 69%
    22:00 +2°C° 0 mm 2 m/S 743 mmHg 75%
    23:00 +1°C° 0 mm 2 m/S 743 mmHg 81%

    26 März, Dienstag

    Zeit Temperatur Niederschläge Wind Luftdruck Luftfeuchtigkeit
    00:00 +1°C° 0 mm 2 m/S 743 mmHg 84%
    01:00 +1°C° 0 mm 2 m/S 743 mmHg 86%
    02:00 -1°C° 0 mm 2 m/S 743 mmHg 89%
    03:00 -1°C° 0.1 mm 2 m/S 743 mmHg 89%
    04:00 -1°C° 0.1 mm 2 m/S 743 mmHg 89%
    05:00 0°C° 0.1 mm 3 m/S 743 mmHg 89%
    06:00 0°C° 0.1 mm 3 m/S 743 mmHg 87%
    07:00 -1°C° 0.1 mm 4 m/S 743 mmHg 85%
    08:00 -1°C° 0.1 mm 4 m/S 743 mmHg 83%
    09:00 -1°C° 0.2 mm 5 m/S 744 mmHg 77%
    10:00 0°C° 0.2 mm 5 m/S 744 mmHg 72%
    11:00 -1°C° 0.2 mm 6 m/S 744 mmHg 66%
    12:00 -1°C° 0.1 mm 6 m/S 745 mmHg 61%
    13:00 +1°C° 0.1 mm 6 m/S 745 mmHg 55%
    14:00 +1°C° 0.1 mm 6 m/S 745 mmHg 49%
    15:00 +1°C° 0 mm 5 m/S 745 mmHg 49%
    16:00 +1°C° 0 mm 5 m/S 745 mmHg 49%
    17:00 +1°C° 0 mm 4 m/S 745 mmHg 48%
    18:00 +1°C° 0 mm 3 m/S 745 mmHg 54%
    19:00 0°C° 0 mm 3 m/S 745 mmHg 61%
    20:00 -1°C° 0 mm 2 m/S 745 mmHg 67%
    21:00 -1°C° 0.2 mm 2 m/S 745 mmHg 74%
    22:00 +1°C° 0.2 mm 1 m/S 745 mmHg 82%
    23:00 0°C° 0.2 mm 1 m/S 745 mmHg 89%

    27 März, Mittwoch

    Zeit Temperatur Niederschläge Wind Luftdruck Luftfeuchtigkeit
    00:00 0°C° 0.3 mm 1 m/S 745 mmHg 89%
    01:00 -2°C° 0.3 mm 2 m/S 746 mmHg 89%
    02:00 -2°C° 0.3 mm 2 m/S 746 mmHg 88%
    03:00 -2°C° 0.1 mm 2 m/S 746 mmHg 87%
    04:00 -2°C° 0.1 mm 2 m/S 747 mmHg 86%
    05:00 -2°C° 0.1 mm 2 m/S 747 mmHg 84%
    06:00 -2°C° 0 mm 3 m/S 748 mmHg 81%
    07:00 -3°C° 0 mm 4 m/S 749 mmHg 78%
    08:00 -3°C° 0 mm 4 m/S 750 mmHg 75%
    09:00 -2°C° 0 mm 4 m/S 750 mmHg 67%
    10:00 -1°C° 0 mm 5 m/S 751 mmHg 59%
    11:00 0°C° 0 mm 5 m/S 751 mmHg 50%
    12:00 0°C° 0 mm 5 m/S 752 mmHg 46%
    13:00 +1°C° 0 mm 5 m/S 752 mmHg 41%
    14:00 +1°C° 0 mm 5 m/S 752 mmHg 36%
    15:00 +1°C° 0 mm 4 m/S 753 mmHg 38%
    16:00 +1°C° 0 mm 4 m/S 753 mmHg 41%
    17:00 +1°C° 0 mm 3 m/S 753 mmHg 43%
    18:00 0°C° 0 mm 3 m/S 754 mmHg 49%
    19:00 -1°C° 0 mm 3 m/S 755 mmHg 55%
    20:00 -3°C° 0 mm 2 m/S 755 mmHg 62%
    21:00 -3°C° 0 mm 2 m/S 755 mmHg 62%
    22:00 -3°C° 0 mm 2 m/S 756 mmHg 63%
    23:00 -3°C° 0 mm 2 m/S 756 mmHg 63%

    28 März, Donnerstag

    Zeit Temperatur Niederschläge Wind Luftdruck Luftfeuchtigkeit
    00:00 -3°C° 0 mm 2 m/S 756 mmHg 63%
    01:00 -3°C° 0 mm 2 m/S 757 mmHg 63%
    02:00 -4°C° 0 mm 2 m/S 757 mmHg 63%
    03:00 -4°C° 0 mm 2 m/S 757 mmHg 65%
    04:00 -3°C° 0 mm 2 m/S 757 mmHg 66%
    05:00 -3°C° 0 mm 2 m/S 757 mmHg 67%
    06:00 -2°C° 0 mm 2 m/S 757 mmHg 66%
    07:00 -1°C° 0 mm 3 m/S 758 mmHg 64%
    08:00 0°C° 0 mm 3 m/S 758 mmHg 63%
    09:00 +1°C° 0 mm 4 m/S 758 mmHg 60%
    10:00 +3°C° 0 mm 4 m/S 758 mmHg 57%
    11:00 +5°C° 0 mm 4 m/S 758 mmHg 55%
    12:00 +5°C° 0 mm 4 m/S 758 mmHg 58%
    13:00 +6°C° 0 mm 5 m/S 757 mmHg 61%
    14:00 +6°C° 0 mm 5 m/S 757 mmHg 64%
    15:00 +6°C° 0 mm 4 m/S 757 mmHg 69%
    16:00 +5°C° 0 mm 4 m/S 757 mmHg 73%
    17:00 +5°C° 0 mm 4 m/S 757 mmHg 78%
    18:00 +3°C° 0 mm 3 m/S 757 mmHg 82%
    19:00 +2°C° 0 mm 3 m/S 757 mmHg 86%
    20:00 +1°C° 0 mm 3 m/S 757 mmHg 91%
    21:00 +1°C° 0 mm 3 m/S 757 mmHg 91%
    22:00 0°C° 0 mm 3 m/S 757 mmHg 91%
    23:00 0°C° 0 mm 3 m/S 757 mmHg 92%
    Mehr zeigen